When you browse on this site, cookies collect data to enhance your experience and personalize the content and advertising you see.
Visit our Privacy Policy to learn more. By continuing to use the site, you agree to this use of cookies and data.
  • In Spain
  • List of Countries
  • For 7 days
  • Water Temperature
  • Satellite Maps
  • Weather Map
  • Weather Widgets
  • user-avatar
    Login

    Hourly Weather Kokchetaw

    Today, 21 June, Friday

    Time Temperature Precipitation Wind Pressure Humidity
    00:00 +14°C° 0 mm 3 mps 738 mmHg 77%
    01:00 +14°C° 0 mm 3 mps 738 mmHg 79%
    02:00 +13°C° 0 mm 3 mps 738 mmHg 80%
    03:00 +13°C° 0 mm 3 mps 738 mmHg 79%
    04:00 +13°C° 0 mm 3 mps 738 mmHg 77%
    05:00 +13°C° 0 mm 3 mps 738 mmHg 76%
    06:00 +15°C° 0 mm 4 mps 738 mmHg 72%
    07:00 +18°C° 0 mm 4 mps 737 mmHg 67%
    08:00 +20°C° 0 mm 4 mps 737 mmHg 62%
    09:00 +21°C° 0 mm 4 mps 737 mmHg 58%
    10:00 +23°C° 0 mm 4 mps 737 mmHg 53%
    11:00 +25°C° 0 mm 4 mps 737 mmHg 48%
    12:00 +26°C° 0 mm 4 mps 737 mmHg 47%
    13:00 +26°C° 0 mm 5 mps 736 mmHg 46%
    14:00 +27°C° 0 mm 5 mps 736 mmHg 45%
    15:00 +27°C° 0 mm 5 mps 735 mmHg 46%
    16:00 +27°C° 0 mm 5 mps 735 mmHg 46%
    17:00 +27°C° 0 mm 5 mps 735 mmHg 47%
    18:00 +23°C° 1.1 mm 4 mps 735 mmHg 60%
    19:00 +21°C° 1.1 mm 3 mps 735 mmHg 73%
    20:00 +18°C° 1.1 mm 2 mps 735 mmHg 86%
    21:00 +17°C° 0.1 mm 2 mps 736 mmHg 87%
    22:00 +17°C° 0.1 mm 3 mps 736 mmHg 87%
    23:00 +16°C° 0.1 mm 3 mps 736 mmHg 88%

    Tomorrow, 22 June, Saturday

    Time Temperature Precipitation Wind Pressure Humidity
    00:00 +14°C° 0 mm 3 mps 736 mmHg 87%
    01:00 +13°C° 0 mm 3 mps 736 mmHg 86%
    02:00 +12°C° 0 mm 3 mps 736 mmHg 85%
    03:00 +12°C° 0 mm 3 mps 737 mmHg 87%
    04:00 +12°C° 0 mm 3 mps 737 mmHg 89%
    05:00 +11°C° 0 mm 3 mps 738 mmHg 91%
    06:00 +12°C° 0 mm 4 mps 738 mmHg 85%
    07:00 +13°C° 0 mm 4 mps 738 mmHg 78%
    08:00 +14°C° 0 mm 5 mps 739 mmHg 71%
    09:00 +15°C° 0 mm 5 mps 739 mmHg 66%
    10:00 +15°C° 0 mm 5 mps 739 mmHg 61%
    11:00 +16°C° 0 mm 6 mps 740 mmHg 55%
    12:00 +16°C° 0 mm 6 mps 740 mmHg 54%
    13:00 +16°C° 0 mm 7 mps 740 mmHg 52%
    14:00 +16°C° 0 mm 7 mps 740 mmHg 51%
    15:00 +16°C° 0 mm 7 mps 740 mmHg 52%
    16:00 +15°C° 0 mm 6 mps 741 mmHg 53%
    17:00 +15°C° 0 mm 6 mps 741 mmHg 54%
    18:00 +14°C° 0 mm 5 mps 741 mmHg 58%
    19:00 +13°C° 0 mm 4 mps 741 mmHg 62%
    20:00 +13°C° 0 mm 3 mps 741 mmHg 66%
    21:00 +12°C° 0 mm 3 mps 742 mmHg 68%
    22:00 +12°C° 0 mm 2 mps 742 mmHg 70%
    23:00 +10°C° 0 mm 2 mps 742 mmHg 71%

    Day after tomorrow, 23 June, Sunday

    Time Temperature Precipitation Wind Pressure Humidity
    00:00 +9°C° 0 mm 2 mps 742 mmHg 73%
    01:00 +9°C° 0 mm 2 mps 742 mmHg 75%
    02:00 +9°C° 0 mm 3 mps 741 mmHg 77%
    03:00 +9°C° 0 mm 3 mps 741 mmHg 77%
    04:00 +9°C° 0 mm 3 mps 742 mmHg 77%
    05:00 +9°C° 0 mm 3 mps 742 mmHg 78%
    06:00 +11°C° 0 mm 3 mps 742 mmHg 73%
    07:00 +13°C° 0 mm 3 mps 741 mmHg 69%
    08:00 +15°C° 0 mm 4 mps 741 mmHg 64%
    09:00 +17°C° 0 mm 4 mps 741 mmHg 60%
    10:00 +19°C° 0 mm 4 mps 741 mmHg 56%
    11:00 +20°C° 0 mm 4 mps 740 mmHg 52%
    12:00 +21°C° 0 mm 5 mps 740 mmHg 52%
    13:00 +22°C° 0 mm 6 mps 739 mmHg 51%
    14:00 +24°C° 0 mm 7 mps 739 mmHg 51%
    15:00 +24°C° 0 mm 6 mps 739 mmHg 52%
    16:00 +24°C° 0 mm 6 mps 738 mmHg 53%
    17:00 +24°C° 0 mm 6 mps 738 mmHg 55%
    18:00 +23°C° 0.3 mm 6 mps 737 mmHg 62%
    19:00 +22°C° 0.3 mm 5 mps 737 mmHg 69%
    20:00 +21°C° 0.3 mm 5 mps 736 mmHg 77%
    21:00 +20°C° 0.3 mm 5 mps 736 mmHg 81%
    22:00 +19°C° 0.3 mm 5 mps 736 mmHg 85%
    23:00 +17°C° 0.3 mm 5 mps 735 mmHg 90%

    24 June, Monday

    Time Temperature Precipitation Wind Pressure Humidity
    00:00 +17°C° 0.3 mm 5 mps 735 mmHg 90%
    01:00 +17°C° 0.3 mm 5 mps 735 mmHg 90%
    02:00 +17°C° 0.3 mm 5 mps 735 mmHg 90%
    03:00 +17°C° 0 mm 5 mps 735 mmHg 91%
    04:00 +17°C° 0 mm 5 mps 734 mmHg 92%
    05:00 +17°C° 0 mm 4 mps 734 mmHg 93%
    06:00 +18°C° 0 mm 4 mps 735 mmHg 91%
    07:00 +20°C° 0 mm 4 mps 735 mmHg 89%
    08:00 +21°C° 0 mm 4 mps 735 mmHg 87%
    09:00 +22°C° 0.2 mm 4 mps 735 mmHg 81%
    10:00 +25°C° 0.2 mm 4 mps 735 mmHg 76%
    11:00 +26°C° 0.2 mm 5 mps 735 mmHg 70%
    12:00 +27°C° 0.1 mm 5 mps 735 mmHg 67%
    13:00 +27°C° 0.1 mm 5 mps 735 mmHg 64%
    14:00 +28°C° 0.1 mm 5 mps 735 mmHg 61%
    15:00 +28°C° 0.7 mm 5 mps 735 mmHg 62%
    16:00 +28°C° 0.7 mm 4 mps 735 mmHg 63%
    17:00 +27°C° 0.7 mm 4 mps 735 mmHg 64%
    18:00 +26°C° 0.2 mm 3 mps 736 mmHg 69%
    19:00 +25°C° 0.2 mm 3 mps 736 mmHg 73%
    20:00 +24°C° 0.2 mm 2 mps 736 mmHg 78%
    21:00 +24°C° 0 mm 2 mps 735 mmHg 80%
    22:00 +23°C° 0 mm 2 mps 735 mmHg 83%
    23:00 +21°C° 0 mm 3 mps 735 mmHg 85%

    25 June, Tuesday

    Time Temperature Precipitation Wind Pressure Humidity
    00:00 +20°C° 0 mm 3 mps 735 mmHg 86%
    01:00 +20°C° 0 mm 3 mps 735 mmHg 87%
    02:00 +19°C° 0 mm 3 mps 735 mmHg 88%
    03:00 +19°C° 0.7 mm 2 mps 735 mmHg 88%
    04:00 +19°C° 0.7 mm 2 mps 735 mmHg 89%
    05:00 +19°C° 0.7 mm 2 mps 735 mmHg 90%
    06:00 +20°C° 0 mm 2 mps 735 mmHg 83%
    07:00 +21°C° 0 mm 2 mps 735 mmHg 76%
    08:00 +21°C° 0 mm 2 mps 735 mmHg 69%
    09:00 +23°C° 0 mm 2 mps 735 mmHg 65%
    10:00 +24°C° 0 mm 3 mps 735 mmHg 61%
    11:00 +25°C° 0 mm 3 mps 735 mmHg 56%
    12:00 +26°C° 0 mm 3 mps 735 mmHg 56%
    13:00 +26°C° 0 mm 4 mps 735 mmHg 56%
    14:00 +26°C° 0 mm 4 mps 735 mmHg 56%
    15:00 +25°C° 0.1 mm 4 mps 735 mmHg 58%
    16:00 +25°C° 0.1 mm 5 mps 735 mmHg 59%
    17:00 +25°C° 0.1 mm 5 mps 735 mmHg 60%
    18:00 +22°C° 0.1 mm 4 mps 735 mmHg 64%
    19:00 +21°C° 0.1 mm 4 mps 735 mmHg 68%
    20:00 +20°C° 0.1 mm 3 mps 735 mmHg 72%
    21:00 +19°C° 0 mm 3 mps 735 mmHg 73%
    22:00 +18°C° 0 mm 2 mps 735 mmHg 75%
    23:00 +18°C° 0 mm 1 mps 735 mmHg 76%

    26 June, Wednesday

    Time Temperature Precipitation Wind Pressure Humidity
    00:00 +16°C° 0 mm 1 mps 735 mmHg 78%
    01:00 +16°C° 0 mm 1 mps 735 mmHg 80%
    02:00 +14°C° 0 mm 0 mps 735 mmHg 82%
    03:00 +14°C° 0 mm 0 mps 735 mmHg 83%
    04:00 +14°C° 0 mm 0 mps 735 mmHg 83%
    05:00 +14°C° 0 mm 0 mps 735 mmHg 84%
    06:00 +15°C° 0 mm 0 mps 735 mmHg 78%
    07:00 +16°C° 0 mm 0 mps 735 mmHg 72%
    08:00 +20°C° 0 mm 1 mps 735 mmHg 66%
    09:00 +21°C° 0 mm 1 mps 734 mmHg 61%
    10:00 +21°C° 0 mm 1 mps 734 mmHg 56%
    11:00 +21°C° 0 mm 2 mps 734 mmHg 51%
    12:00 +22°C° 0 mm 1 mps 734 mmHg 50%
    13:00 +23°C° 0 mm 1 mps 734 mmHg 49%
    14:00 +23°C° 0 mm 1 mps 734 mmHg 48%
    15:00 +23°C° 0.1 mm 1 mps 733 mmHg 50%
    16:00 +23°C° 0.1 mm 2 mps 733 mmHg 52%
    17:00 +23°C° 0.1 mm 2 mps 733 mmHg 54%
    18:00 +20°C° 0.6 mm 3 mps 733 mmHg 62%
    19:00 +19°C° 0.6 mm 3 mps 732 mmHg 71%
    20:00 +18°C° 0.6 mm 3 mps 732 mmHg 79%
    21:00 +17°C° 1.4 mm 3 mps 732 mmHg 84%
    22:00 +15°C° 1.4 mm 4 mps 731 mmHg 89%
    23:00 +14°C° 1.4 mm 4 mps 731 mmHg 94%
    Show more